• In Portugal
  • List of Countries
  • For 7 days
  • Water Temperature
  • Satellite Maps
  • Weather Map
  • Weather Widgets
  • user-avatar
    Login

    Hourly Weather Poczernino

    Today, 18 August, Saturday

    Time Temperature Precipitation Wind Pressure Humidity
    00:00 +19°C° 0.5 mm 3 mps 760 mmHg 91%
    01:00 +19°C° 0 mm 3 mps 760 mmHg 94%
    02:00 +18°C° 0.3 mm 3 mps 760 mmHg 94%
    03:00 +18°C° 0.3 mm 3 mps 761 mmHg 94%
    04:00 +18°C° 0.3 mm 3 mps 761 mmHg 95%
    05:00 +18°C° 0 mm 3 mps 761 mmHg 91%
    06:00 +19°C° 0 mm 3 mps 761 mmHg 87%
    07:00 +20°C° 0 mm 2 mps 762 mmHg 82%
    08:00 +21°C° 0 mm 2 mps 762 mmHg 74%
    09:00 +23°C° 0 mm 2 mps 762 mmHg 67%
    10:00 +24°C° 0 mm 2 mps 762 mmHg 59%
    11:00 +24°C° 0 mm 3 mps 762 mmHg 56%
    12:00 +25°C° 0 mm 3 mps 762 mmHg 53%
    13:00 +25°C° 0 mm 3 mps 762 mmHg 50%
    14:00 +25°C° 0 mm 3 mps 762 mmHg 49%
    15:00 +25°C° 0 mm 3 mps 762 mmHg 49%
    16:00 +25°C° 0 mm 3 mps 762 mmHg 48%
    17:00 +22°C° 0 mm 3 mps 762 mmHg 54%
    18:00 +21°C° 0 mm 2 mps 762 mmHg 59%
    19:00 +20°C° 0 mm 1 mps 762 mmHg 64%
    20:00 +19°C° 0 mm 2 mps 762 mmHg 65%
    21:00 +18°C° 0 mm 2 mps 762 mmHg 66%
    22:00 +18°C° 0 mm 2 mps 762 mmHg 66%
    23:00 +18°C° 0 mm 2 mps 762 mmHg 67%

    Tomorrow, 19 August, Sunday

    Time Temperature Precipitation Wind Pressure Humidity
    00:00 +17°C° 0 mm 3 mps 762 mmHg 67%
    01:00 +17°C° 0 mm 3 mps 762 mmHg 67%
    02:00 +17°C° 0 mm 3 mps 762 mmHg 68%
    03:00 +17°C° 0 mm 3 mps 762 mmHg 70%
    04:00 +17°C° 0 mm 3 mps 762 mmHg 71%
    05:00 +17°C° 0 mm 3 mps 762 mmHg 71%
    06:00 +18°C° 0 mm 3 mps 762 mmHg 70%
    07:00 +19°C° 0 mm 3 mps 762 mmHg 69%
    08:00 +21°C° 0 mm 4 mps 762 mmHg 66%
    09:00 +22°C° 0 mm 4 mps 763 mmHg 62%
    10:00 +25°C° 0 mm 4 mps 763 mmHg 59%
    11:00 +25°C° 0 mm 4 mps 762 mmHg 57%
    12:00 +26°C° 0 mm 4 mps 762 mmHg 55%
    13:00 +27°C° 0 mm 4 mps 762 mmHg 53%
    14:00 +27°C° 0 mm 3 mps 762 mmHg 53%
    15:00 +27°C° 0 mm 3 mps 761 mmHg 53%
    16:00 +27°C° 0 mm 2 mps 761 mmHg 53%
    17:00 +26°C° 0 mm 2 mps 761 mmHg 59%
    18:00 +24°C° 0 mm 1 mps 761 mmHg 64%
    19:00 +23°C° 0 mm 1 mps 760 mmHg 69%
    20:00 +21°C° 0 mm 2 mps 760 mmHg 69%
    21:00 +21°C° 0 mm 2 mps 760 mmHg 70%
    22:00 +20°C° 0 mm 3 mps 760 mmHg 70%
    23:00 +20°C° 0 mm 3 mps 759 mmHg 69%

    Day after tomorrow, 20 August, Monday

    Time Temperature Precipitation Wind Pressure Humidity
    00:00 +20°C° 0 mm 4 mps 759 mmHg 68%
    01:00 +20°C° 0 mm 4 mps 759 mmHg 67%
    02:00 +19°C° 0 mm 4 mps 758 mmHg 66%
    03:00 +19°C° 0 mm 4 mps 758 mmHg 65%
    04:00 +19°C° 0 mm 4 mps 758 mmHg 65%
    05:00 +20°C° 0 mm 4 mps 758 mmHg 65%
    06:00 +20°C° 0 mm 5 mps 757 mmHg 66%
    07:00 +21°C° 0 mm 5 mps 757 mmHg 67%
    08:00 +22°C° 0 mm 6 mps 757 mmHg 64%
    09:00 +24°C° 0 mm 6 mps 757 mmHg 61%
    10:00 +26°C° 0 mm 7 mps 757 mmHg 58%
    11:00 +26°C° 0.1 mm 7 mps 757 mmHg 62%
    12:00 +24°C° 0.1 mm 7 mps 757 mmHg 66%
    13:00 +23°C° 0.1 mm 7 mps 756 mmHg 69%
    14:00 +23°C° 0.1 mm 7 mps 757 mmHg 70%
    15:00 +23°C° 0.1 mm 8 mps 757 mmHg 71%
    16:00 +22°C° 0.1 mm 8 mps 757 mmHg 72%
    17:00 +21°C° 0 mm 8 mps 757 mmHg 71%
    18:00 +20°C° 0 mm 7 mps 757 mmHg 69%
    19:00 +19°C° 0 mm 6 mps 758 mmHg 68%
    20:00 +17°C° 0 mm 6 mps 758 mmHg 68%
    21:00 +17°C° 0 mm 6 mps 758 mmHg 69%
    22:00 +16°C° 0 mm 6 mps 759 mmHg 69%
    23:00 +16°C° 0 mm 6 mps 759 mmHg 72%

    21 August, Tuesday

    Time Temperature Precipitation Wind Pressure Humidity
    00:00 +16°C° 0 mm 5 mps 759 mmHg 74%
    01:00 +15°C° 0 mm 5 mps 760 mmHg 76%
    02:00 +15°C° 0 mm 5 mps 760 mmHg 78%
    03:00 +15°C° 0 mm 5 mps 760 mmHg 79%
    04:00 +15°C° 0 mm 4 mps 761 mmHg 81%
    05:00 +17°C° 0 mm 4 mps 761 mmHg 78%
    06:00 +16°C° 0 mm 5 mps 761 mmHg 76%
    07:00 +17°C° 0 mm 5 mps 762 mmHg 73%
    08:00 +19°C° 0 mm 5 mps 762 mmHg 69%
    09:00 +19°C° 0 mm 5 mps 763 mmHg 66%
    10:00 +20°C° 0 mm 4 mps 763 mmHg 62%
    11:00 +21°C° 0 mm 4 mps 763 mmHg 60%
    12:00 +21°C° 0 mm 4 mps 763 mmHg 57%
    13:00 +22°C° 0 mm 4 mps 763 mmHg 55%
    14:00 +22°C° 0 mm 4 mps 763 mmHg 55%
    15:00 +21°C° 0 mm 4 mps 763 mmHg 56%
    16:00 +21°C° 0 mm 4 mps 763 mmHg 57%
    17:00 +20°C° 0 mm 3 mps 763 mmHg 63%
    18:00 +18°C° 0 mm 3 mps 763 mmHg 69%
    19:00 +17°C° 0 mm 2 mps 763 mmHg 75%
    20:00 +16°C° 0 mm 2 mps 764 mmHg 78%
    21:00 +15°C° 0 mm 1 mps 764 mmHg 81%
    22:00 +14°C° 0 mm 1 mps 764 mmHg 84%
    23:00 +14°C° 0 mm 1 mps 764 mmHg 85%

    22 August, Wednesday

    Time Temperature Precipitation Wind Pressure Humidity
    00:00 +14°C° 0 mm 1 mps 764 mmHg 85%
    01:00 +13°C° 0 mm 2 mps 764 mmHg 86%
    02:00 +13°C° 0 mm 2 mps 764 mmHg 85%
    03:00 +13°C° 0 mm 2 mps 764 mmHg 85%
    04:00 +13°C° 0 mm 2 mps 764 mmHg 85%
    05:00 +14°C° 0 mm 2 mps 764 mmHg 81%
    06:00 +15°C° 0 mm 2 mps 764 mmHg 77%
    07:00 +17°C° 0 mm 2 mps 764 mmHg 73%
    08:00 +19°C° 0 mm 3 mps 764 mmHg 65%
    09:00 +21°C° 0 mm 3 mps 763 mmHg 58%
    10:00 +24°C° 0 mm 3 mps 763 mmHg 50%
    11:00 +25°C° 0 mm 3 mps 763 mmHg 47%
    12:00 +26°C° 0 mm 2 mps 762 mmHg 44%
    13:00 +27°C° 0 mm 2 mps 762 mmHg 41%
    14:00 +27°C° 0 mm 2 mps 762 mmHg 41%
    15:00 +27°C° 0 mm 2 mps 761 mmHg 40%
    16:00 +28°C° 0 mm 2 mps 761 mmHg 40%
    17:00 +26°C° 0 mm 2 mps 761 mmHg 45%
    18:00 +24°C° 0 mm 2 mps 760 mmHg 51%
    19:00 +22°C° 0 mm 1 mps 760 mmHg 57%
    20:00 +20°C° 0 mm 2 mps 760 mmHg 58%
    21:00 +20°C° 0 mm 2 mps 760 mmHg 59%
    22:00 +19°C° 0 mm 3 mps 760 mmHg 61%
    23:00 +19°C° 0 mm 3 mps 760 mmHg 61%

    23 August, Thursday

    Time Temperature Precipitation Wind Pressure Humidity
    00:00 +18°C° 0 mm 3 mps 760 mmHg 61%
    01:00 +18°C° 0 mm 3 mps 760 mmHg 62%
    02:00 +18°C° 0 mm 3 mps 759 mmHg 62%
    03:00 +17°C° 0 mm 3 mps 759 mmHg 63%
    04:00 +17°C° 0 mm 2 mps 759 mmHg 64%
    05:00 +18°C° 0 mm 2 mps 759 mmHg 62%
    06:00 +19°C° 0 mm 2 mps 759 mmHg 61%
    07:00 +20°C° 0 mm 2 mps 759 mmHg 60%
    08:00 +23°C° 0 mm 2 mps 759 mmHg 54%
    09:00 +26°C° 0 mm 1 mps 759 mmHg 48%
    10:00 +28°C° 0 mm 1 mps 759 mmHg 43%
    11:00 +29°C° 0 mm 1 mps 758 mmHg 41%
    12:00 +29°C° 0 mm 1 mps 758 mmHg 38%
    13:00 +30°C° 0 mm 1 mps 757 mmHg 36%
    14:00 +30°C° 0 mm 2 mps 757 mmHg 37%
    15:00 +30°C° 0 mm 2 mps 757 mmHg 37%
    16:00 +30°C° 0 mm 3 mps 756 mmHg 38%
    17:00 +28°C° 0 mm 3 mps 756 mmHg 43%
    18:00 +26°C° 0 mm 3 mps 755 mmHg 49%
    19:00 +25°C° 0 mm 3 mps 755 mmHg 54%
    20:00 +24°C° 0 mm 3 mps 755 mmHg 55%
    21:00 +22°C° 0 mm 4 mps 755 mmHg 56%
    22:00 +22°C° 0 mm 4 mps 754 mmHg 56%
    23:00 +22°C° 0 mm 4 mps 754 mmHg 57%
    Show more